Regional Weather Roundup
Issued by NWS

Home | Current Version | Previous Version | Text Only | Print | Product List | Glossary Off
Versions: 1 2 3 4 5 6 7 8 9 10 11 12 13 14 15 16 17 18 19 20 21 22 23 24 25 26 27 28 29 30 31 32 33 34 35 36 37 38 39 40 41 42 43 44 45 46 47 48 49 50

000
ASUS43 KDTX 071601
RWRMI
MICHIGAN HOURLY REGIONAL WEATHER ROUNDUP
NATIONAL WEATHER SERVICE DETROIT/PONTIAC MI
1100 AM EST SUN FEB 07 2016

NOTE: "FAIR" INDICATES FEW OR NO CLOUDS BELOW 12,000 FEET WITH NO
SIGNIFICANT WEATHER AND/OR OBSTRUCTION TO VISIBILITY.

MIZ047>049-052>055-059>063-066>070-074>076-081>083-071700-
SOUTHEAST LOWER MICHIGAN

CITY           SKY/WX    TMP DP  RH WIND       PRES   REMARKS
ADRIAN         PTSUNNY   37  28  70 SW16      29.94F WCI  28
ALMA           CLOUDY    39  32  75 S9        29.81F WCI  33
ANN ARBOR      CLOUDY    36  28  73 S12       29.92F WCI  28
BAD AXE        MOSUNNY   37  30  77 S9        29.87S WCI  30
CARO           PTSUNNY   41  30  66 S9        29.86S
DETROIT CITY   CLOUDY    39  28  64 SW10      29.94F WCI  32
DETROIT        CLOUDY    39  28  64 S12       29.95F WCI  32
FLINT          CLOUDY    41  28  60 S9        29.88F
GROSSE ILE     MOSUNNY   39  32  75 S9        29.94F WCI  33
HILLSDALE      CLOUDY    37  28  69 S13       29.90S WCI  29
HOWELL         CLOUDY    39  29  68 S12G17    29.88S WCI  32

CITY           SKY/WX    TMP DP  RH WIND       PRES   REMARKS
JACKSON        PTSUNNY   42  27  55 S12       29.88F
LAMBERTVILLE   MOSUNNY   39  28  65 SW9       29.95F WCI  33
LANSING        CLOUDY    40  28  62 S16G22    29.84F WCI  31
LAPEER         CLOUDY    38  29  71 S9        29.89S WCI  31
MASON          CLOUDY    40  30  66 S9        29.86F WCI  34
MONROE         CLOUDY    40  28  64 S7        29.94F WCI  35
PONTIAC        CLOUDY    37  27  67 S8        29.90F WCI  31
PORT HOPE        N/A     37  29  72 S7G16     29.85F WCI  32
PORT HURON     MOSUNNY   37  30  75 S10G16    29.94S WCI  30
TRI CITIES     CLOUDY    41  30  65 S12       29.83F
MIDLAND        CLOUDY    39  29  67 S6        29.81F WCI  35
TROY           PTSUNNY   38  27  63 S8        29.94F WCI  32
SAGINAW HB     PTSUNNY   39  32  75 S10G17    29.84F WCI  32
$$
MIZ043>046-050>051-056>058-064>065-071>073-077>080-071700-
SOUTHWEST LOWER MICHIGAN

CITY           SKY/WX    TMP DP  RH WIND       PRES   REMARKS
BATTLE CREEK   MOSUNNY   40  29  64 S15       29.84F WCI  32
BENTON HARBOR  MOSUNNY   42  29  59 S13       29.82F
BIG RAPIDS     PTSUNNY   39  30  69 S8        29.74F WCI  34
COLDWATER      MOSUNNY   41  29  61 SW13G20   29.88F
FREMONT        CLOUDY    38  31  74 SW12      29.74F WCI  31
HOLLAND        CLOUDY    42  30  62 SW16G26   29.79F
GRAND RAPIDS   CLOUDY    41  30  65 S17       29.79F
IONIA          FAIR      39  29  68 S12       29.80F WCI  32
KALAMAZOO      CLOUDY    40  29  64 S13       29.84F WCI  32
LUDINGTON      CLOUDY    39  32  77 SW21G26   29.72S WCI  29
MARSHALL       MOSUNNY   40  29  63 S13G20    29.86F WCI  33
MOUNT PLEASANT CLOUDY    39  30  68 S10       29.78F WCI  33
MUSKEGON       CLOUDY    42  32  67 S21G29    29.76F
SOUTH HAVEN    MOSUNNY   43  30  59 SW14G20   29.80F
$$
MIZ016>042-071700-
NORTHERN LOWER MICHIGAN

CITY           SKY/WX    TMP DP  RH WIND       PRES   REMARKS
ALPENA         CLOUDY    34  28  79 S13       29.80F WCI  25
BEAVER ISLAND  RAIN      36  33  88 S7        29.67F WCI  30
BELLAIRE       CLOUDY    38  30  74 S10       29.71F WCI  31
CADILLAC       CLOUDY    36  30  80 S9        29.70F WCI  29
CHARLEVOIX     CLOUDY    37  31  77 S9        29.72F WCI  31
FRANKFORT      PTSUNNY   40  32  72 S14G21    29.68F WCI  33
GAYLORD        CLOUDY    35  29  78 S15       29.71F WCI  25
GRAYLING       CLOUDY    34  29  81 S10G16    29.74F WCI  26
HARBOR SPRINGS CLOUDY    38  30  73 S6        29.71F WCI  33
HOUGHTON LAKE  CLOUDY    35  28  75 S12       29.75F WCI  27
MANISTEE       CLOUDY    41  28  60 SW14G22   29.71S
OSCODA         CLOUDY    36  29  75 S7        29.82F WCI  31
PELLSTON       CLOUDY    35  29  78 SE7       29.71F WCI  29
ROGERS CITY    CLOUDY    33  28  81 S10       29.78F WCI  25
TRAVERSE CITY  CLOUDY    40  30  67 SW7       29.69F
$$
MIZ007>008-015-071700-
EASTERN UPPER MICHIGAN

CITY           SKY/WX    TMP DP  RH WIND       PRES   REMARKS
KINROSS        CLOUDY    34  32  93 SE18      29.71F WCI  23
MACKINAC ISLAN CLOUDY    34  29  84 SE6       29.71F WCI  28
NEWBERRY       LGT SNOW  32  32  99 S12G17    29.63F WCI  23
S. S. MARIE    LGT SNOW  33  30  88 E8        29.72F FOG     WCI  26
$$
MIZ004>006-011>014-085-071700-
CENTRAL UPPER MICHIGAN

CITY           SKY/WX    TMP DP  RH WIND       PRES   REMARKS
MANISTIQUE     LGT RAIN  36  34  92 SW14G21   29.62F WCI  27
ESCANABA       CLOUDY    34  30  86 S8        29.60F WCI  27
MENOMINEE      PTSUNNY   37  30  75 SW10      29.60F WCI  30
SAWYER-GWINN   LGT SNOW  28  28 100 S15       29.55F WCI  17
$$
MIZ001>003-009>011-084-071700-
WESTERN UPPER MICHIGAN

CITY           SKY/WX    TMP DP  RH WIND       PRES   REMARKS
IRON MOUNTAIN  CLOUDY    31  28  89 S8        29.54F FOG     WCI  23
HOUGHTON       LGT SNOW  31  29  92 SE7       29.51S VSB 3/4 WCI  24
COPPER HARBOR    N/A     33  31  92 SW7       29.53F WCI  27
IRONWOOD       CLOUDY    34  30  86 SW9       29.46S WCI  26
$$

ABBREVIATIONS USED IN REMARKS
   TC - TEMPERATURE IN CELSIUS
  WCI - WIND CHILL INDEX
   HX - HEAT INDEX
  VSB - VISIBILITY




USA.gov is the U.S. government's official web portal to all federal, state and local government web resources and services.